Regional Weather Roundup
Issued by NWS

Home | Current Version | Previous Version | Graphics & Text | Print | Product List | Glossary On
Versions: 1 2 3 4 5 6 7 8 9 10 11 12 13 14 15 16 17 18 19 20 21 22 23 24 25 26 27 28 29 30 31 32 33 34 35 36 37 38 39 40 41 42 43 44 45 46 47 48 49 50
233
ASUS44 KMEG 050710
RWRTN
TENNESSEE HOURLY STATE WEATHER ROUNDUP
NATIONAL WEATHER SERVICE MEMPHIS TN
200 AM CDT THU MAY 05 2016

TNZ002-004-019-021-049-052-054-088>092-050800-
WEST TENNESSEE

CITY           SKY/WX    TMP DP  RH WIND       PRES   REMARKS
MEMPHIS INTL   CLEAR     58  44  60 N6        29.91S
NWS MEMPHIS      N/A     56 N/A N/A MISG        N/A
JACKSON        CLEAR     49  44  83 CALM      29.89F
DYERSBURG      CLEAR     50  45  81 CALM      29.89F
UNION CITY     PTCLDY    46  45  93 CALM      29.86F
LEXINGTON      CLEAR     45  43  93 CALM      29.85F
$$

TNZ008-025-027-028-033-062-065-066-050800-
NORTH MIDDLE TENNESSEE

CITY           SKY/WX    TMP DP  RH WIND       PRES   REMARKS
NASHVILLE      CLEAR     50  40  68 NW6       29.84F
CLARKSVILLE    PTCLDY    47  41  80 W3        29.84F
SMYRNA         PTCLDY    47  42  82 NW7       29.85F
COOKEVILLE     CLEAR     46  45  93 NW3       29.78F
CROSSVILLE     PTCLDY    45  41  86 NW6       29.78F
$$

TNZ061-075-076-078-094-096-097-050800-
SOUTH MIDDLE TENNESSEE

CITY           SKY/WX    TMP DP  RH WIND       PRES   REMARKS
FAYETTEVILLE   CLEAR     50  43  76 NW6       29.83F
TULLAHOMA      CLEAR     41  41 100 NW3       29.83F
WINCHESTER     CLEAR     46  45  93 NW5       29.82F
MCMINNVILLE    CLEAR     46  43  87 NW6       29.81F
COLUMBIA       CLEAR    N/A N/A N/A CALM      29.84F
SHELBYVILLE    CLEAR     48  43  81 NW6       29.85S
$$

TNZ017-018-042-046-047-050800-
NORTHEAST TENNESSEE

CITY           SKY/WX    TMP DP  RH WIND       PRES   REMARKS
TRI CITIES     CLOUDY    47  44  90 W6        29.71F
$$

TNZ012-013-036-069-073-074-050800-
CENTRAL EAST TENNESSEE

CITY           SKY/WX    TMP DP  RH WIND       PRES   REMARKS
KNOXVILLE      LGT RAIN  49  44  83 NW6       29.74F
OAK RIDGE      CLOUDY    48  44  86 CALM      29.77F
GATLINBURG     PTSUNNY   48  45  87 W5        29.74F
MORRISTOWN     CLOUDY    48  46  93 NW5       29.72F
$$

TNZ083-085-099-050800-
SOUTHEAST TENNESSEE

CITY           SKY/WX    TMP DP  RH WIND       PRES   REMARKS
CHATTANOOGA    CLEAR     51  45  79 NW12      29.78F
$$

SKY/WX REPORTED AS FAIR MEANS FEW OR NO CLOUDS BELOW
12 THOUSAND FEET.





USA.gov is the U.S. government's official web portal to all federal, state and local government web resources and services.